Temp
9 9 9 8 8 8 7 7 7 7 6 6 6 6 6 6 6 5 5 5 5 5 5 5 5 5 6 6 6 6 6 6
8 8 7 7 7 7 7 7 6 6 6 6 6 5 6 5 5 5 5 5 5 5 5 4 5 5 5 5 6 6 6 6
7 7 7 7 7 7 6 7 6 6 6 5 5 5 5 5 5 5 5 5 5 5 4 4 5 5 4 4 4 5 6 6
7 7 6 6 6 6 6 6 6 5 6 6 6 5 6 5 5 5 5 5 5 5 5 5 4 4 4 4 4 4 4 5
6 6 6 5 5 5 5 5 6 6 6 6 6 5 6 5 5 5 5 5 4 5 5 5 5 4 4 4 5 4 4 4
5 6 5 5 5 5 5 6 5 5 5 5 6 5 5 4 4 4 3 3 4 4 4 4 4 5 4 4 4 4 5 4
5 5 5 5 5 5 5 5 5 4 4 4 5 3 3 2 2 1 1 1 1 1 2 2 3 3 3 3 4 4 4 4
5 5 5 4 4 4 4 4 3 2 1 2 0 -1 -0 -1 -2 -2 -2 -2 -2 -1 -0 0 1 2 2 2 2 4 4 4
4 4 4 4 4 4 3 3 2 0 -1 -1 -2 -3 -3 -3 -4 -4 -3 -3 -4 -4 -3 -3 -3 -1 0 1 1 2 3 4
4 4 4 4 4 3 3 2 0 -1 -2 -3 -3 -3 -4 -4 -4 -4 -3 -3 -3 -3 -4 -4 -4 -3 -3 -2 -0 1 1 2
4 4 3 3 3 2 1 0 -1 -3 -4 -4 -4 -4 -4 -4 -4 -4 -4 -4 -4 -4 -4 -4 -4 -4 -4 -3 -3 -1 1 1
3 3 3 3 2 1 0 -1 -3 -4 -4 -4 -4 -4 -4 -4 -4 -4 -4 -4 -5 -5 -5 -5 -4 -4 -4 -3 -3 -2 -1 0
3 3 3 2 1 0 -2 -3 -4 -4 -4 -4 -4 -4 -4 -5 -5 -5 -5 -5 -6 -6 -6 -6 -6 -6 -5 -4 -3 -2 -2 -1
2 2 1 1 -0 -2 -3 -4 -4 -4 -4 -4 -5 -5 -5 -6 -6 -6 -6 -7 -7 -7 -7 -7 -7 -7 -6 -5 -3 -2 -2 -2
1 1 1 -0 -1 -2 -3 -4 -4 -4 -4 -4 -5 -6 -6 -7 -7 -7 -7 -8 -8 -8 -8 -8 -7 -8 -8 -7 -5 -3 -2 -2
1 1 0 -1 -1 -2 -3 -4 -4 -4 -5 -5 -7 -7 -8 -8 -8 -9 -9 -9 -9 -9 -9 -9 -9 -8 -8 -8 -8 -7 -4 -1
-0 -0 -1 -2 -2 -3 -4 -4 -5 -5 -6 -7 -8 -8 -8 -9 -9 -10 -10 -10 -10 -10 -10 -10 -10 -10 -9 -9 -8 -8 -8 -6
-1 -1 -2 -3 -3 -4 -5 -5 -5 -6 -7 -7 -7 -8 -9 -9 -9 -10 -10 -11 -12 -12 -11 -12 -12 -12 -11 -11 -10 -8 -8 -8
-1 -2 -2 -3 -4 -4 -5 -6 -6 -7 -7 -7 -7 -8 -9 -9 -9 -10 -11 -11 -13 -13 -13 -14 -14 -13 -12 -11 -11 -9 -9 -7
-2 -3 -3 -4 -4 -5 -6 -6 -6 -6 -7 -8 -8 -8 -9 -9 -10 -11 -11 -12 -12 -13 -14 -15 -15 -14 -13 -12 -11 -10 -9 -8
Height
3174 3172 3170 3169 3166 3164 3162 3159 3157 3154 3152 3150 3147 3146 3144 3141 3139 3137 3136 3134 3133 3131 3129 3128 3128 3127 3127 3127 3128 3130 3131 3134
3174 3172 3169 3167 3165 3162 3160 3157 3155 3153 3150 3146 3144 3141 3139 3138 3133 3132 3129 3126 3125 3124 3124 3123 3121 3120 3120 3121 3120 3120 3123 3125
3174 3171 3168 3166 3163 3160 3157 3155 3151 3147 3146 3143 3140 3137 3134 3131 3128 3125 3121 3120 3117 3115 3115 3114 3114 3114 3112 3112 3114 3112 3113 3115
3173 3170 3167 3164 3161 3157 3154 3150 3146 3140 3135 3135 3132 3129 3126 3122 3119 3116 3113 3110 3106 3104 3102 3101 3101 3101 3103 3103 3103 3104 3106 3106
3170 3168 3166 3162 3158 3154 3150 3147 3141 3137 3131 3126 3123 3120 3115 3111 3107 3103 3100 3097 3094 3088 3089 3090 3091 3088 3089 3091 3092 3093 3094 3096
3168 3167 3163 3160 3156 3151 3144 3139 3135 3129 3122 3116 3111 3109 3103 3098 3094 3089 3085 3080 3078 3080 3075 3078 3075 3074 3074 3077 3078 3079 3081 3083
3165 3161 3160 3153 3148 3143 3137 3128 3124 3116 3109 3102 3095 3093 3086 3083 3078 3073 3070 3067 3065 3062 3060 3057 3058 3057 3057 3060 3063 3065 3067 3070
3161 3156 3153 3146 3141 3134 3128 3120 3114 3107 3098 3087 3085 3077 3071 3068 3062 3059 3055 3053 3050 3046 3042 3041 3042 3043 3045 3044 3046 3050 3054 3056
3155 3152 3146 3140 3133 3127 3121 3113 3106 3098 3090 3084 3079 3072 3067 3062 3057 3052 3047 3043 3039 3036 3031 3028 3025 3025 3024 3026 3031 3037 3040 3044
3150 3146 3140 3134 3128 3121 3114 3105 3098 3091 3084 3080 3074 3069 3063 3057 3052 3046 3041 3036 3030 3026 3021 3018 3014 3010 3009 3010 3012 3019 3025 3030
3146 3141 3136 3129 3123 3115 3107 3099 3092 3085 3079 3073 3069 3064 3058 3052 3045 3039 3032 3027 3021 3015 3011 3007 3003 2999 2996 2995 2999 3002 3008 3014
3143 3138 3132 3124 3117 3109 3101 3094 3087 3081 3074 3068 3064 3058 3052 3045 3038 3031 3024 3017 3011 3005 2999 2996 2991 2986 2985 2984 2986 2989 2994 2998
3139 3132 3126 3118 3110 3104 3098 3090 3082 3076 3070 3064 3058 3051 3044 3036 3029 3022 3015 3007 3000 2995 2989 2983 2981 2976 2972 2972 2975 2976 2980 2983
3134 3128 3121 3115 3107 3101 3093 3088 3080 3072 3065 3059 3051 3043 3035 3026 3018 3012 3004 2997 2990 2986 2980 2974 2971 2968 2963 2960 2960 2968 2965 2971
3131 3124 3118 3111 3106 3098 3090 3083 3077 3067 3059 3053 3044 3036 3027 3020 3013 3004 2995 2989 2982 2976 2970 2966 2960 2961 2958 2954 2951 2952 2951 2958
3128 3122 3115 3107 3099 3092 3084 3076 3069 3061 3052 3043 3037 3029 3021 3015 3007 2999 2991 2983 2976 2970 2963 2958 2954 2951 2950 2949 2948 2944 2939 2940
3125 3118 3111 3103 3094 3087 3079 3072 3064 3056 3048 3040 3033 3025 3017 3010 3002 2995 2987 2979 2971 2964 2958 2952 2947 2944 2941 2939 2940 2939 2936 2931
3121 3114 3107 3100 3092 3085 3077 3068 3060 3051 3044 3036 3029 3022 3015 3008 3001 2992 2985 2976 2967 2959 2953 2946 2942 2938 2935 2933 2931 2930 2929 2926
3118 3110 3103 3097 3090 3082 3075 3065 3056 3048 3041 3034 3027 3019 3011 3003 2996 2988 2981 2974 2966 2956 2949 2942 2937 2933 2930 2927 2925 2923 2921 2921
3114 3107 3100 3094 3086 3079 3072 3063 3054 3046 3040 3033 3025 3016 3008 3001 2995 2986 2979 2971 2965 2956 2948 2941 2935 2931 2927 2924 2921 2918 2916 2914
Wind_Speed
19 20 21 19 19 19 20 20 20 20 20 21 22 24 26 29 29 31 32 33 31 30 29 28 27 27 27 26 25 26 26 26
18 17 17 19 21 21 21 23 22 23 23 24 25 25 27 25 27 29 32 33 34 36 37 34 34 33 32 30 30 31 31 29
17 18 20 23 25 26 28 28 30 31 28 29 30 30 32 31 32 32 34 33 34 35 38 39 41 40 39 37 36 37 35 34
18 20 22 25 26 29 30 33 34 38 41 39 40 39 40 41 42 42 42 40 40 39 39 37 40 45 44 43 40 38 39 39
22 23 24 26 28 30 33 33 38 40 43 46 44 42 44 44 44 45 46 47 46 52 47 44 40 41 44 50 49 44 46 40
24 25 28 31 34 37 41 43 40 42 45 48 49 48 49 49 48 49 48 48 50 49 55 46 46 49 43 44 46 48 47 46
28 32 32 38 40 41 42 47 48 51 52 54 58 53 55 51 50 50 47 50 48 49 51 53 52 51 52 48 51 49 47 45
34 37 40 42 42 43 46 49 50 49 49 56 55 52 53 50 47 43 42 39 39 44 50 53 53 55 56 55 54 55 52 50
38 41 42 41 43 46 48 49 47 46 46 47 42 42 40 36 36 37 37 39 39 37 39 47 51 52 55 59 54 56 58 56
41 42 41 43 46 48 49 48 46 42 40 37 36 33 33 36 38 39 40 40 42 43 39 37 41 50 54 54 56 55 56 57
41 42 42 45 47 48 47 45 42 39 37 35 32 33 37 40 41 42 45 46 45 43 42 40 40 43 49 53 53 53 54 58
39 41 44 47 48 48 46 41 37 35 36 35 35 39 43 43 45 47 49 48 46 44 44 40 42 44 42 44 46 47 49 52
40 42 45 46 47 47 42 37 37 38 39 42 45 47 48 49 48 47 46 46 44 44 43 42 39 42 44 42 40 41 41 47
40 41 43 44 44 42 39 40 41 42 43 44 46 47 48 48 48 47 44 42 41 39 38 38 37 36 39 40 40 37 40 40
40 42 44 44 42 40 39 40 42 44 44 44 45 46 46 44 42 41 40 40 38 36 35 35 37 31 31 32 35 33 41 38
39 42 44 44 44 42 43 43 43 45 46 48 43 42 41 39 37 37 37 36 36 33 32 32 32 31 27 24 26 31 35 40
39 42 43 44 45 45 45 44 44 43 42 42 41 43 39 37 36 37 38 37 35 34 31 29 27 27 26 27 23 26 32 38
39 42 44 44 44 45 44 44 40 38 39 41 41 40 38 37 37 38 38 38 38 35 32 30 27 24 24 24 24 24 27 34
39 42 44 43 43 45 41 38 36 35 38 40 40 37 37 38 38 37 37 37 37 35 33 29 27 24 23 21 21 23 26 28
40 42 43 42 44 43 37 33 35 36 37 38 39 39 37 37 37 36 36 36 35 32 31 27 24 22 21 20 20 22 23 25
Wind_Direction
333 330 329 332 332 335 332 327 323 320 316 312 306 304 296 290 288 286 284 281 276 267 262 258 255 251 250 248 249 255 256 259
329 335 338 337 335 335 331 327 324 320 320 317 314 312 305 310 297 291 286 282 279 274 268 264 257 257 256 251 248 247 251 250
333 335 335 331 331 327 323 318 317 312 309 310 309 306 303 299 298 296 290 291 288 282 274 266 265 262 261 256 255 253 246 245
331 331 330 327 323 320 316 315 314 312 307 304 303 303 299 296 294 291 288 283 279 277 273 269 265 261 261 259 256 258 255 247
325 327 323 321 318 315 312 311 311 310 305 301 299 300 296 295 292 288 283 279 276 273 268 268 268 264 259 255 255 257 256 257
322 321 323 322 319 320 319 315 317 317 315 312 308 309 306 303 299 293 289 282 275 274 274 268 261 260 254 255 253 255 252 254
325 324 330 330 327 325 325 324 328 325 322 316 313 317 309 308 303 300 297 291 285 277 268 267 260 254 253 244 248 250 251 250
332 332 336 331 331 332 332 329 328 325 322 317 325 321 319 321 320 318 314 308 296 283 274 269 262 260 257 251 240 243 245 250
333 335 336 333 334 334 333 331 329 326 323 323 325 323 326 329 329 329 325 321 315 307 293 280 272 264 257 255 252 249 238 242
335 334 334 335 336 335 334 332 332 329 328 331 327 330 332 329 326 322 319 317 313 309 304 297 287 275 267 261 255 250 244 238
333 335 337 337 336 337 338 337 335 334 330 330 331 330 326 322 320 320 318 315 310 305 300 295 287 281 275 269 264 257 247 245
335 337 339 339 340 341 339 339 338 335 331 327 325 323 321 319 319 317 314 311 307 303 300 294 289 284 279 273 271 266 255 246
337 340 341 341 342 340 339 340 339 337 331 327 323 322 321 319 318 315 313 310 308 306 302 299 294 290 284 275 267 265 261 253
339 339 340 341 340 341 340 337 335 335 332 329 325 324 323 322 321 319 318 315 311 309 304 301 298 297 294 291 280 256 258 257
339 338 339 339 341 343 339 337 336 334 331 330 331 329 327 329 328 326 324 320 316 313 307 302 298 299 296 300 295 279 262 248
337 338 338 338 341 342 343 342 339 335 336 335 336 337 340 339 335 335 331 324 321 319 311 305 300 300 294 287 284 283 278 261
339 337 338 340 342 341 341 339 337 338 341 342 348 350 346 345 343 340 339 337 334 330 324 315 307 301 295 288 278 268 272 273
336 337 340 342 341 339 339 337 341 347 349 348 349 349 350 347 347 344 342 343 343 340 333 326 321 310 298 292 291 279 267 264
337 339 340 341 340 337 338 341 348 353 350 347 347 350 352 349 347 348 347 347 349 345 342 336 330 324 313 303 295 286 278 268
338 339 340 340 340 339 342 349 353 351 347 346 349 350 350 350 347 349 352 348 352 355 356 347 336 326 321 310 302 296 289 278